カタログに戻る

CZ-3A DEB

LostHEO
NORAD 39598·DEBRIS·🇨🇳 China

打ち上げ Feb 2, 2007 から Xichang Satellite Launch Center

Loading…

次のパス (今後24時間)

TLE

古いSource: Space-Track

元期: Sep 13, 2025, 06:19 UTC

1 39598U 07003AK  25256.26323645  .00000076  00000-0  67066-2 0  9995
2 39598  26.1244  85.8030 7455166 188.1448 357.7963  1.82486958    19

AllMySatでCZ-3A DEBをリアルタイム追跡

Download on the App Store